| time (UTC) | temp C | wind direction | speed KPH | gust KPH | rain 1hr cm | rain 24hr cm | rain mn cm | humidity % | barometer mb |
| 20260504225527 | 30 | 256 | 0.0 | 1.6 | 0.00 | 0.00 | 0.00 | 25 | 1002.8 |
| 20260504225024 | 30 | 227 | 0.0 | 1.6 | 0.00 | 0.00 | 0.00 | 25 | 1002.9 |
| 20260504224523 | 30 | 243 | 0.0 | 1.6 | 0.00 | 0.00 | 0.00 | 26 | 1002.9 |
| 20260504224006 | 30 | 250 | 0.0 | 1.6 | 0.00 | 0.00 | 0.00 | 27 | 1003.1 |
| 20260504223505 | 30 | 239 | 0.0 | 1.6 | 0.00 | 0.00 | 0.00 | 25 | 1003.2 |
| 20260504223005 | 30 | 230 | 0.0 | 1.6 | 0.00 | 0.00 | 0.00 | 25 | 1003.1 |
| 20260504222504 | 30 | 238 | 0.0 | 1.6 | 0.00 | 0.00 | 0.00 | 24 | 1003.1 |
| 20260504222007 | 30 | 253 | 0.0 | 1.6 | 0.00 | 0.00 | 0.00 | 25 | 1003.2 |
| 20260504221504 | 30 | 222 | 0.0 | 1.6 | 0.00 | 0.00 | 0.00 | 24 | 1003.3 |
| 20260504221045 | 30 | 248 | 0.0 | 1.6 | 0.00 | 0.00 | 0.00 | 25 | 1003.3 |
| 20260504220545 | 30 | 242 | 0.0 | 1.6 | 0.00 | 0.00 | 0.00 | 24 | 1003.4 |
| 20260504220044 | 30 | 165 | 0.0 | 1.6 | 0.00 | 0.00 | 0.00 | 23 | 1003.5 |
| 20260504215543 | 30 | 236 | 0.0 | 1.6 | 0.00 | 0.00 | 0.00 | 24 | 1003.5 |
| 20260504215043 | 30 | 234 | 0.0 | 1.6 | 0.00 | 0.00 | 0.00 | 25 | 1003.6 |
| 20260504214541 | 30 | 243 | 0.0 | 3.2 | 0.00 | 0.00 | 0.00 | 25 | 1003.7 |
| 20260504214023 | 30 | 239 | 0.0 | 1.6 | 0.00 | 0.00 | 0.00 | 25 | 1003.7 |
| 20260504213522 | 30 | 250 | 0.0 | 1.6 | 0.00 | 0.00 | 0.00 | 24 | 1003.9 |
| 20260504213043 | 30 | 239 | 0.0 | 11.3 | 0.00 | 0.00 | 0.00 | 25 | 1003.8 |
| 20260504212522 | 30 | 297 | 0.0 | 11.3 | 0.00 | 0.00 | 0.00 | 25 | 1003.9 |
| 20260504212022 | 30 | 18 | 0.0 | 9.7 | 0.00 | 0.00 | 0.00 | 25 | 1003.9 |
| 20260504211520 | 30 | 222 | 0.0 | 3.2 | 0.00 | 0.00 | 0.00 | 26 | 1004.0 |
| 20260504211001 | 30 | 256 | 0.0 | 3.2 | 0.00 | 0.00 | 0.00 | 26 | 1004.1 |
| 20260504210502 | 30 | 251 | 0.0 | 1.6 | 0.00 | 0.00 | 0.00 | 26 | 1004.2 |
| 20260504210100 | 30 | 253 | 0.0 | 8.0 | 0.00 | 0.00 | 0.00 | 24 | 1004.3 |
| 20260504205601 | 30 | 105 | 0.0 | 17.7 | 0.00 | 0.00 | 0.00 | 24 | 1004.3 |
| 20260504205059 | 30 | 225 | 0.0 | 11.3 | 0.00 | 0.00 | 0.00 | 24 | 1004.5 |
| 20260504204558 | 30 | 222 | 0.0 | 4.8 | 0.00 | 0.00 | 0.00 | 25 | 1004.5 |
| 20260504204039 | 30 | 236 | 0.0 | 1.6 | 0.00 | 0.00 | 0.00 | 25 | 1004.6 |
| 20260504203538 | 30 | 12 | 0.0 | 1.6 | 0.00 | 0.00 | 0.00 | 24 | 1004.7 |
| 20260504203037 | 29 | 273 | 0.0 | 1.6 | 0.00 | 0.00 | 0.00 | 26 | 1004.8 |
| 20260504202537 | 30 | 270 | 0.0 | 16.1 | 0.00 | 0.00 | 0.00 | 24 | 1004.9 |
| 20260504202035 | 29 | 231 | 0.0 | 16.1 | 0.00 | 0.00 | 0.00 | 26 | 1005.0 |
| 20260504201536 | 30 | 236 | 3.2 | 14.5 | 0.00 | 0.00 | 0.00 | 27 | 1005.0 |
| 20260504201020 | 29 | 226 | 0.0 | 1.6 | 0.00 | 0.00 | 0.00 | 26 | 1005.1 |
| 20260504200516 | 28 | 249 | 0.0 | 3.2 | 0.00 | 0.00 | 0.00 | 24 | 1005.2 |
| 20260504200017 | 28 | 239 | 0.0 | 3.2 | 0.00 | 0.00 | 0.00 | 27 | 1005.3 |
| 20260504195514 | 28 | 246 | 0.0 | 16.1 | 0.00 | 0.00 | 0.00 | 28 | 1005.4 |
| 20260504195014 | 28 | 256 | 6.4 | 16.1 | 0.00 | 0.00 | 0.00 | 26 | 1005.6 |
| 20260504194517 | 28 | 214 | 0.0 | 11.3 | 0.00 | 0.00 | 0.00 | 27 | 1005.8 |
| 20260504194112 | 28 | 239 | 4.8 | 11.3 | 0.00 | 0.00 | 0.00 | 28 | 1005.7 |
| 20260504193553 | 28 | 260 | 0.0 | 1.6 | 0.00 | 0.00 | 0.00 | 26 | 1005.9 |
| 20260504193100 | 27 | 266 | 0.0 | 1.6 | 0.00 | 0.00 | 0.00 | 27 | 1005.8 |
| 20260504192552 | 27 | 231 | 0.0 | 17.7 | 0.00 | 0.00 | 0.00 | 27 | 1005.9 |
| 20260504192050 | 27 | 256 | 8.0 | 19.3 | 0.00 | 0.00 | 0.00 | 29 | 1006.1 |
| 20260504191549 | 27 | 239 | 0.0 | 3.2 | 0.00 | 0.00 | 0.00 | 29 | 1006.1 |
| 20260504191049 | 28 | 239 | 0.0 | 20.9 | 0.00 | 0.00 | 0.00 | 30 | 1006.3 |
| 20260504190533 | 27 | 232 | 1.6 | 20.9 | 0.00 | 0.00 | 0.00 | 30 | 1006.4 |
| 20260504190029 | 27 | 246 | 0.0 | 12.9 | 0.00 | 0.00 | 0.00 | 31 | 1006.5 |
| 20260504185530 | 28 | 194 | 0.0 | 19.3 | 0.00 | 0.00 | 0.00 | 32 | 1006.5 |
| 20260504185028 | 27 | 243 | 11.3 | 19.3 | 0.00 | 0.00 | 0.00 | 31 | 1006.6 |
| 20260504184528 | 27 | 263 | 0.0 | 19.3 | 0.00 | 0.00 | 0.00 | 31 | 1006.6 |
| 20260504184028 | 27 | 226 | 8.0 | 19.3 | 0.00 | 0.00 | 0.00 | 32 | 1006.8 |
| 20260504183511 | 27 | 256 | 8.0 | 19.3 | 0.00 | 0.00 | 0.00 | 33 | 1006.8 |
| 20260504183015 | 26 | 233 | 9.7 | 22.5 | 0.00 | 0.00 | 0.00 | 33 | 1006.9 |
| 20260504182510 | 27 | 226 | 0.0 | 6.4 | 0.00 | 0.00 | 0.00 | 34 | 1006.9 |
| 20260504182007 | 26 | 243 | 0.0 | 19.3 | 0.00 | 0.00 | 0.00 | 35 | 1006.9 |
| 20260504181507 | 26 | 236 | 9.7 | 20.9 | 0.00 | 0.00 | 0.00 | 36 | 1007.1 |
| 20260504181006 | 26 | 196 | 9.7 | 19.3 | 0.00 | 0.00 | 0.00 | 33 | 1007.1 |
| 20260504180505 | 26 | 225 | 0.0 | 20.9 | 0.00 | 0.00 | 0.00 | 39 | 1007.2 |
| 20260504180006 | 26 | 243 | 9.7 | 20.9 | 0.00 | 0.00 | 0.00 | 37 | 1007.3 |
| 20260504175501 | 26 | 226 | 0.0 | 17.7 | 0.00 | 0.00 | 0.00 | 37 | 1007.4 |
| 20260504175004 | 26 | 269 | 1.6 | 20.9 | 0.00 | 0.00 | 0.00 | 39 | 1007.4 |
| 20260504174617 | 26 | 248 | 9.7 | 22.5 | 0.00 | 0.00 | 0.00 | 39 | 1007.5 |
| 20260504174059 | 26 | 240 | 0.0 | 4.8 | 0.00 | 0.00 | 0.00 | 41 | 1007.6 |
| 20260504173600 | 25 | 211 | 0.0 | 14.5 | 0.00 | 0.00 | 0.00 | 41 | 1007.7 |
| 20260504173059 | 25 | 248 | 4.8 | 19.3 | 0.00 | 0.00 | 0.00 | 42 | 1007.7 |
| 20260504172555 | 25 | 203 | 4.8 | 16.1 | 0.00 | 0.00 | 0.00 | 44 | 1007.9 |
| 20260504172058 | 25 | 214 | 4.8 | 9.7 | 0.00 | 0.00 | 0.00 | 44 | 1008.0 |
| 20260504171554 | 25 | 214 | 0.0 | 17.7 | 0.00 | 0.00 | 0.00 | 44 | 1008.1 |
| 20260504171056 | 24 | 239 | 1.6 | 24.1 | 0.00 | 0.00 | 0.00 | 46 | 1008.1 |
| 20260504170554 | 24 | 260 | 9.7 | 24.1 | 0.00 | 0.00 | 0.00 | 44 | 1008.3 |
| 20260504151039 | 20 | 266 | 0.0 | 1.6 | 0.00 | 0.00 | 0.00 | 64 | 1009.3 |
| 20260504150521 | 20 | 249 | 0.0 | 1.6 | 0.00 | 0.00 | 0.00 | 66 | 1009.5 |
| 20260504141051 | 17 | 242 | 0.0 | 1.6 | 0.00 | 0.00 | 0.00 | 73 | 1009.3 |
| 20260504140532 | 17 | 265 | 0.0 | 0.0 | 0.00 | 0.00 | 0.00 | 76 | 1009.3 |
| 20260504130603 | 14 | 300 | 0.0 | 0.0 | 0.00 | 0.00 | 0.00 | 82 | 1008.7 |
| 20260504110603 | -17 | 0.0 | 0.0 | 0.00 | 0.00 | 0.00 | 1007.5 | ||
| 20260504110118 | -17 | 0.0 | 0.0 | 0.00 | 0.00 | 0.00 | 1007.5 | ||
| 20260504100545 | 13 | 67 | 0.0 | 0.0 | 0.00 | 0.00 | 0.00 | 84 | 1007.3 |
| 20260504090119 | 13 | 167 | 0.0 | 0.0 | 0.00 | 0.00 | 0.00 | 86 | 1007.5 |
| 20260504081555 | 13 | 151 | 0.0 | 0.0 | 0.00 | 0.00 | 0.00 | 86 | 1007.8 |
| 20260504081053 | 13 | 166 | 0.0 | 0.0 | 0.00 | 0.00 | 0.00 | 86 | 1007.9 |
| 20260504080556 | 13 | 166 | 0.0 | 0.0 | 0.00 | 0.00 | 0.00 | 86 | 1007.8 |
| 20260504050550 | 15 | 233 | 0.0 | 1.6 | 0.00 | 0.00 | 0.00 | 78 | 1009.4 |
| 20260504045536 | 16 | 236 | 0.0 | 1.6 | 0.00 | 0.00 | 0.00 | 76 | 1009.4 |
| 20260504045032 | 16 | 233 | 0.0 | 0.0 | 0.00 | 0.00 | 0.00 | 76 | 1009.4 |
| 20260504044540 | 16 | 222 | 0.0 | 0.0 | 0.00 | 0.00 | 0.00 | 75 | 1009.3 |
| 20260504044033 | 16 | 248 | 0.0 | 1.6 | 0.00 | 0.00 | 0.00 | 74 | 1009.1 |
| 20260504043531 | 16 | 235 | 0.0 | 1.6 | 0.00 | 0.00 | 0.00 | 74 | 1009.1 |
| 20260504043035 | 16 | 235 | 0.0 | 0.0 | 0.00 | 0.00 | 0.00 | 73 | 1009.1 |
| 20260504042519 | 16 | 226 | 0.0 | 0.0 | 0.00 | 0.00 | 0.00 | 73 | 1009.1 |
| 20260504042018 | 16 | 227 | 0.0 | 0.0 | 0.00 | 0.00 | 0.00 | 72 | 1009.0 |
| 20260504041518 | 17 | 224 | 0.0 | 1.6 | 0.00 | 0.00 | 0.00 | 72 | 1009.0 |
| 20260504041018 | 17 | 228 | 0.0 | 1.6 | 0.00 | 0.00 | 0.00 | 71 | 1008.9 |
| 20260504040521 | 17 | 229 | 0.0 | 1.6 | 0.00 | 0.00 | 0.00 | 71 | 1008.8 |
| 20260504040018 | 17 | 256 | 0.0 | 1.6 | 0.00 | 0.00 | 0.00 | 70 | 1008.7 |
| 20260504035517 | 17 | 252 | 0.0 | 0.0 | 0.00 | 0.00 | 0.00 | 70 | 1008.5 |
| 20260504035017 | 17 | 256 | 0.0 | 0.0 | 0.00 | 0.00 | 0.00 | 69 | 1008.3 |
| 20260504034522 | 17 | 257 | 0.0 | 0.0 | 0.00 | 0.00 | 0.00 | 69 | 1008.2 |
| 20260504034017 | 17 | 259 | 0.0 | 0.0 | 0.00 | 0.00 | 0.00 | 68 | 1008.1 |
| 20260504033517 | 17 | 259 | 0.0 | 0.0 | 0.00 | 0.00 | 0.00 | 67 | 1007.9 |
| 20260504033018 | 17 | 259 | 0.0 | 0.0 | 0.00 | 0.00 | 0.00 | 67 | 1007.9 |
| 20260504032516 | 18 | 259 | 0.0 | 0.0 | 0.00 | 0.00 | 0.00 | 67 | 1007.7 |
| 20260504032015 | 18 | 258 | 0.0 | 0.0 | 0.00 | 0.00 | 0.00 | 66 | 1007.7 |
| 20260504031516 | 18 | 236 | 0.0 | 9.7 | 0.00 | 0.00 | 0.00 | 66 | 1007.5 |
| 20260504031015 | 18 | 79 | 3.2 | 9.7 | 0.00 | 0.00 | 0.00 | 65 | 1007.2 |
| 20260504030515 | 18 | 72 | 0.0 | 4.8 | 0.00 | 0.00 | 0.00 | 64 | 1006.9 |
| 20260504030015 | 19 | 43 | 0.0 | 4.8 | 0.00 | 0.00 | 0.00 | 64 | 1006.7 |
| 20260504025515 | 19 | 74 | 0.0 | 1.6 | 0.00 | 0.00 | 0.00 | 64 | 1006.6 |
| 20260504025014 | 19 | 67 | 0.0 | 1.6 | 0.00 | 0.00 | 0.00 | 63 | 1006.6 |
| 20260504024519 | 19 | 70 | 0.0 | 1.6 | 0.00 | 0.00 | 0.00 | 62 | 1006.4 |
| 20260504024014 | 20 | 53 | 0.0 | 4.8 | 0.00 | 0.00 | 0.00 | 62 | 1006.2 |
| 20260504023514 | 20 | 60 | 0.0 | 1.6 | 0.00 | 0.00 | 0.00 | 61 | 1006.1 |
| 20260504023014 | 20 | 69 | 0.0 | 1.6 | 0.00 | 0.00 | 0.00 | 61 | 1006.2 |
| 20260504022504 | 20 | 64 | 0.0 | 6.4 | 0.00 | 0.00 | 0.00 | 60 | 1006.0 |
| 20260504022100 | 20 | 58 | 0.0 | 6.4 | 0.00 | 0.00 | 0.00 | 60 | 1006.0 |
| 20260504021500 | 20 | 71 | 0.0 | 6.4 | 0.00 | 0.00 | 0.00 | 59 | 1005.9 |
| 20260504021100 | 20 | 61 | 0.0 | 6.4 | 0.00 | 0.00 | 0.00 | 58 | 1005.8 |
| 20260504020600 | 21 | 154 | 0.0 | 1.6 | 0.00 | 0.00 | 0.00 | 57 | 1005.7 |
| 20260504020100 | 21 | 145 | 0.0 | 1.6 | 0.00 | 0.00 | 0.00 | 56 | 1005.4 |
| 20260504015600 | 21 | 83 | 0.0 | 1.6 | 0.00 | 0.00 | 0.00 | 55 | 1005.2 |
| 20260504015103 | 21 | 80 | 0.0 | 1.6 | 0.00 | 0.00 | 0.00 | 53 | 1005.1 |
| 20260504014603 | 22 | 69 | 0.0 | 1.6 | 0.00 | 0.00 | 0.00 | 52 | 1005.0 |
| 20260504014058 | 22 | 44 | 0.0 | 1.6 | 0.00 | 0.00 | 0.00 | 50 | 1004.8 |
| 20260504013600 | 23 | 117 | 0.0 | 1.6 | 0.00 | 0.00 | 0.00 | 47 | 1004.7 |
| 20260504013501 | 23 | 64 | 0.0 | 1.6 | 0.00 | 0.00 | 0.00 | 47 | 1004.8 |
| 20260504013059 | 23 | 56 | 0.0 | 8.0 | 0.00 | 0.00 | 0.00 | 45 | 1004.8 |
| 20260504012558 | 25 | 69 | 0.0 | 8.0 | 0.00 | 0.00 | 0.00 | 42 | 1004.7 |
| 20260504012058 | 26 | 262 | 0.0 | 1.6 | 0.00 | 0.00 | 0.00 | 29 | 1004.6 |
| 20260504011559 | 26 | 262 | 0.0 | 1.6 | 0.00 | 0.00 | 0.00 | 28 | 1004.5 |
| 20260504011059 | 26 | 253 | 0.0 | 1.6 | 0.00 | 0.00 | 0.00 | 28 | 1004.2 |
| 20260504010557 | 26 | 252 | 0.0 | 1.6 | 0.00 | 0.00 | 0.00 | 28 | 1004.1 |
| 20260504005558 | 27 | 253 | 0.0 | 1.6 | 0.00 | 0.00 | 0.00 | 28 | 1004.0 |
| 20260504005100 | 27 | 243 | 0.0 | 1.6 | 0.00 | 0.00 | 0.00 | 28 | 1003.9 |
| 20260504004557 | 27 | 278 | 0.0 | 1.6 | 0.00 | 0.00 | 0.00 | 28 | 1003.8 |
| 20260504004058 | 27 | 248 | 0.0 | 1.6 | 0.00 | 0.00 | 0.00 | 27 | 1003.7 |
| 20260504003559 | 27 | 255 | 0.0 | 1.6 | 0.00 | 0.00 | 0.00 | 27 | 1003.8 |
| 20260504003056 | 28 | 236 | 0.0 | 1.6 | 0.00 | 0.00 | 0.00 | 26 | 1003.7 |
| 20260504002538 | 28 | 250 | 0.0 | 1.6 | 0.00 | 0.00 | 0.00 | 26 | 1003.7 |
| 20260504002038 | 28 | 248 | 0.0 | 1.6 | 0.00 | 0.00 | 0.00 | 25 | 1003.7 |
| 20260504001559 | 28 | 243 | 0.0 | 1.6 | 0.00 | 0.00 | 0.00 | 25 | 1003.6 |
| 20260504001039 | 27 | 290 | 0.0 | 17.7 | 0.00 | 0.00 | 0.00 | 26 | 1003.5 |
| 20260504000539 | 28 | 253 | 0.0 | 17.7 | 0.00 | 0.00 | 0.00 | 25 | 1003.5 |
| 20260504000041 | 28 | 276 | 0.0 | 1.6 | 0.00 | 0.00 | 0.00 | 24 | 1003.5 |
| 20260503235521 | 28 | 252 | 0.0 | 1.6 | 0.00 | 0.00 | 0.00 | 24 | 1003.4 |
| 20260503235019 | 28 | 274 | 0.0 | 3.2 | 0.00 | 0.00 | 0.00 | 24 | 1003.4 |
| 20260503234519 | 28 | 261 | 0.0 | 3.2 | 0.00 | 0.00 | 0.00 | 25 | 1003.3 |
| 20260503234023 | 28 | 263 | 0.0 | 1.6 | 0.00 | 0.00 | 0.00 | 24 | 1003.3 |
| 20260503233517 | 28 | 250 | 0.0 | 1.6 | 0.00 | 0.00 | 0.00 | 25 | 1003.5 |
| 20260503233017 | 28 | 260 | 0.0 | 1.6 | 0.00 | 0.00 | 0.00 | 25 | 1003.5 |
| 20260503232603 | 28 | 231 | 0.0 | 1.6 | 0.00 | 0.00 | 0.00 | 25 | 1003.5 |
| 20260503232059 | 28 | 226 | 0.0 | 1.6 | 0.00 | 0.00 | 0.00 | 24 | 1003.5 |
| 20260503231559 | 28 | 228 | 0.0 | 1.6 | 0.00 | 0.00 | 0.00 | 23 | 1003.5 |
| 20260503231059 | 28 | 235 | 0.0 | 1.6 | 0.00 | 0.00 | 0.00 | 24 | 1003.4 |
| 20260503230601 | 28 | 243 | 0.0 | 1.6 | 0.00 | 0.00 | 0.00 | 23 | 1003.5 |
| 20260503230059 | 29 | 298 | 0.0 | 3.2 | 0.00 | 0.00 | 0.00 | 24 | 1003.4 |